TimeCST,TemperatureF,Dew PointF,Humidity,Sea Level PressureIn,VisibilityMPH,Wind Direction,Wind SpeedMPH,Gust SpeedMPH,PrecipitationIn,Events,Conditions,WindDirDegrees,DateUTC
12:15 AM,33.8,30.2,87,30.01,2.5,SE,10.4,-,N/A,,Overcast,130,2012-12-01 06:15:00
12:35 AM,33.8,30.2,87,29.99,2.5,SE,11.5,-,N/A,,Overcast,140,2012-12-01 06:35:00
12:55 AM,35.6,32.0,87,29.97,2.5,SE,12.7,-,N/A,,Overcast,130,2012-12-01 06:55:00
1:15 AM,35.6,32.0,87,29.96,2.5,SE,11.5,-,N/A,,Overcast,130,2012-12-01 07:15:00
1:35 AM,33.8,30.2,87,29.95,2.5,SE,12.7,-,N/A,,Overcast,130,2012-12-01 07:35:00
2:15 AM,33.8,30.2,87,29.95,2.0,SE,10.4,-,N/A,,Mostly Cloudy,130,2012-12-01 08:15:00
2:55 AM,33.8,30.2,87,29.93,2.5,SE,12.7,-,N/A,,Mist,140,2012-12-01 08:55:00
3:15 AM,33.8,30.2,87,29.93,2.5,SE,10.4,-,N/A,,Mist,140,2012-12-01 09:15:00
3:35 AM,33.8,30.2,87,29.92,2.5,SE,11.5,-,N/A,,Clear,130,2012-12-01 09:35:00
3:55 AM,32.0,28.4,87,29.90,2.5,SE,9.2,-,N/A,,Clear,130,2012-12-01 09:55:00
4:15 AM,32.0,30.2,93,29.89,2.5,SE,12.7,-,N/A,,Clear,130,2012-12-01 10:15:00
4:35 AM,32.0,30.2,93,29.88,2.5,SE,12.7,-,N/A,,Clear,140,2012-12-01 10:35:00
4:55 AM,33.8,30.2,87,29.87,3.0,SE,13.8,-,N/A,,Clear,140,2012-12-01 10:55:00
5:15 AM,33.8,30.2,87,29.86,3.0,SE,13.8,-,N/A,,Clear,140,2012-12-01 11:15:00
5:35 AM,33.8,30.2,87,29.85,3.0,SE,15.0,-,N/A,,Clear,140,2012-12-01 11:35:00
6:15 AM,33.8,30.2,87,29.83,3.0,SE,16.1,-,N/A,,Clear,140,2012-12-01 12:15:00
6:35 AM,33.8,30.2,87,29.83,3.0,SSE,15.0,19.6,N/A,,Clear,150,2012-12-01 12:35:00
6:55 AM,33.8,30.2,87,29.81,4.0,SE,16.1,-,N/A,,Mostly Cloudy,140,2012-12-01 12:55:00
7:15 AM,35.6,32.0,87,29.80,4.0,SSE,16.1,24.2,N/A,,Overcast,150,2012-12-01 13:15:00
7:35 AM,35.6,33.8,93,29.80,5.0,SSE,12.7,20.7,N/A,,Overcast,150,2012-12-01 13:35:00
8:15 AM,39.2,35.6,87,29.77,4.0,SSE,17.3,21.9,N/A,,Overcast,150,2012-12-01 14:15:00
8:35 AM,39.2,35.6,87,29.77,5.0,SSE,18.4,-,N/A,,Haze,150,2012-12-01 14:35:00
8:55 AM,41.0,35.6,81,29.77,4.0,SSE,19.6,26.5,N/A,,Haze,160,2012-12-01 14:55:00
9:15 AM,41.0,37.4,87,29.80,4.0,South,11.5,-,N/A,,Overcast,180,2012-12-01 15:15:00
9:35 AM,42.8,37.4,81,29.81,3.0,Calm,Calm,-,N/A,,Overcast,0,2012-12-01 15:35:00
10:15 AM,42.8,37.4,81,29.80,3.0,SSE,10.4,16.1,N/A,,Overcast,160,2012-12-01 16:15:00
10:35 AM,42.8,37.4,81,29.78,3.0,SSE,3.5,-,N/A,,Overcast,160,2012-12-01 16:35:00
10:55 AM,42.8,39.2,87,29.77,3.0,SSE,12.7,-,N/A,,Overcast,160,2012-12-01 16:55:00
11:15 AM,42.8,39.2,87,29.76,2.5,SSE,13.8,20.7,N/A,,Overcast,160,2012-12-01 17:15:00
11:35 AM,44.6,41.0,87,29.76,2.5,South,9.2,-,N/A,,Overcast,180,2012-12-01 17:35:00
12:15 PM,46.4,42.8,87,29.75,3.0,Calm,Calm,-,N/A,,Overcast,0,2012-12-01 18:15:00
12:35 PM,46.4,42.8,87,29.74,4.0,Calm,Calm,-,N/A,,Overcast,0,2012-12-01 18:35:00
12:55 PM,48.2,42.8,82,29.73,4.0,SSW,3.5,-,N/A,,Haze,210,2012-12-01 18:55:00
1:15 PM,48.2,44.6,87,29.73,5.0,Calm,Calm,-,N/A,,Haze,0,2012-12-01 19:15:00
1:35 PM,48.2,42.8,82,29.73,5.0,SW,10.4,-,N/A,,Haze,220,2012-12-01 19:35:00
1:55 PM,50.0,42.8,76,29.72,5.0,SW,9.2,-,N/A,,Haze,220,2012-12-01 19:55:00
2:15 PM,50.0,42.8,76,29.73,5.0,SSW,5.8,-,N/A,,Haze,200,2012-12-01 20:15:00
2:35 PM,51.8,42.8,71,29.73,7.0,SW,5.8,-,N/A,,Clear,220,2012-12-01 20:35:00
3:15 PM,51.8,41.0,67,29.73,7.0,Calm,Calm,-,N/A,,Clear,0,2012-12-01 21:15:00
3:35 PM,51.8,39.2,62,29.73,7.0,Calm,Calm,-,N/A,,Clear,0,2012-12-01 21:35:00
3:55 PM,50.0,39.2,66,29.74,7.0,Calm,Calm,-,N/A,,Clear,0,2012-12-01 21:55:00
4:15 PM,48.2,39.2,71,29.75,10.0,Calm,Calm,-,N/A,,Clear,0,2012-12-01 22:15:00
4:35 PM,46.4,37.4,71,29.76,7.0,Calm,Calm,-,N/A,,Clear,0,2012-12-01 22:35:00
5:15 PM,44.6,37.4,76,29.77,10.0,Calm,Calm,-,N/A,,Clear,0,2012-12-01 23:15:00
5:55 PM,42.8,37.4,81,29.78,7.0,Calm,Calm,-,N/A,,Clear,0,2012-12-01 23:55:00
6:15 PM,39.2,35.6,87,29.79,7.0,Calm,Calm,-,N/A,,Clear,0,2012-12-02 00:15:00
6:35 PM,39.2,35.6,87,29.80,7.0,Calm,Calm,-,N/A,,Clear,0,2012-12-02 00:35:00
6:55 PM,41.0,37.4,87,29.80,7.0,Calm,Calm,-,N/A,,Clear,0,2012-12-02 00:55:00
7:15 PM,39.2,35.6,87,29.81,5.0,Calm,Calm,-,N/A,,Haze,0,2012-12-02 01:15:00
7:35 PM,35.6,33.8,93,29.82,5.0,Calm,Calm,-,N/A,,Clear,0,2012-12-02 01:35:00
7:55 PM,37.4,33.8,87,29.82,5.0,Calm,Calm,-,N/A,,Clear,0,2012-12-02 01:55:00
8:15 PM,35.6,33.8,93,29.82,5.0,Calm,Calm,-,N/A,,Clear,0,2012-12-02 02:15:00
8:34 PM,35.6,32.0,87,29.82,5.0,Calm,Calm,-,N/A,,Clear,0,2012-12-02 02:34:00
8:55 PM,35.6,30.2,81,29.82,5.0,Calm,Calm,-,N/A,,Clear,0,2012-12-02 02:55:00
9:15 PM,33.8,30.2,87,29.82,5.0,Calm,Calm,-,N/A,,Scattered Clouds,0,2012-12-02 03:15:00
9:35 PM,33.8,30.2,87,29.82,5.0,Calm,Calm,-,N/A,,Scattered Clouds,0,2012-12-02 03:35:00
9:55 PM,35.6,32.0,87,29.83,5.0,Calm,Calm,-,N/A,,Scattered Clouds,0,2012-12-02 03:55:00
10:14 PM,35.6,32.0,87,29.85,5.0,Calm,Calm,-,N/A,,Clear,0,2012-12-02 04:14:00
10:35 PM,37.4,33.8,87,29.85,7.0,Calm,Calm,-,N/A,,Clear,0,2012-12-02 04:35:00
10:55 PM,37.4,33.8,87,29.86,7.0,Calm,Calm,-,N/A,,Clear,0,2012-12-02 04:55:00
11:15 PM,37.4,32.0,81,29.87,7.0,Calm,Calm,-,N/A,,Scattered Clouds,0,2012-12-02 05:15:00
11:35 PM,35.6,30.2,81,29.88,7.0,Calm,Calm,-,N/A,,Scattered Clouds,0,2012-12-02 05:35:00
11:54 PM,35.6,30.2,81,29.88,10.0,Calm,Calm,-,N/A,,Clear,0,2012-12-02 05:54:00